Regional Weather Roundup
Issued by NWS

Home | Current Version | Previous Version | Text Only | Print | Product List | Glossary Off
Versions: 1 2 3 4 5 6 7 8 9 10 11 12 13 14 15 16 17 18 19 20 21 22 23 24 25 26 27 28 29 30 31 32 33 34 35 36 37 38 39 40 41 42 43 44 45 46 47 48 49 50

420
ASUS45 KTFX 130410
RWRMT
MONTANA REGIONAL WEATHER ROUNDUP
NATIONAL WEATHER SERVICE GREAT FALLS MT
900 PM MST TUE DEC 12 2017

NOTE: "FAIR" INDICATES FEW OR NO CLOUDS BELOW 12000 FEET WITH NO
SIGNIFICANT WEATHER AND/OR OBSTRUCTIONS TO VISIBILITY.

MTZ001>007-043-130500-
WEST OF THE DIVIDE

CITY           SKY/WX    TMP DP  RH WIND       PRES   REMARKS
KALISPELL      CLOUDY    25  24  96 N3        30.42R
MISSOULA       CLOUDY    21  18  88 CALM      30.41F
BUTTE          MOCLDY    27  18  69 CALM      30.31F
MULLAN PASS    CLOUDY    30   9  41 CALM      30.31F
ANACONDA         N/A     28  16  59 SW7       30.32F WCI  21
DEER LODGE       N/A     25  19  80 CALM      30.36S
EUREKA           N/A     21  18  86 MISG      30.48R
HAMILTON         N/A     19  18  93 CALM      30.37F
LIBBY            N/A     21  19  93 CALM      30.44R
PLAINS           N/A     27  19  71 CALM      30.39
$$

MTZ008-052>055-130500-
SOUTHWEST MONTANA

CITY           SKY/WX    TMP DP  RH WIND       PRES   REMARKS
BOZEMAN        CLOUDY    29  23  78 CALM      30.28F
DILLON         CLOUDY    35  22  58 W3        30.30S
W YELLOWSTONE  MOCLDY    23  14  68 CALM      30.33F
ENNIS          CLOUDY    37  19  48 S13       30.32F WCI  29
$$

MTZ009-010-012-014-046-048-049-054-130500-
EAST SLOPES AND CENTRAL MONTANA

CITY           SKY/WX    TMP DP  RH WIND       PRES   REMARKS
CUT BANK       FAIR      35  12  38 NW12      30.20R WCI  27
GREAT FALLS    FAIR      41   7  24 W13       30.21R
MALMSTROM AFB  FAIR      46   7  20 W14       30.20R
HELENA         CLOUDY    26  22  84 E7        30.27F WCI  18
BOWMANS CRNR   FAIR      37   7  29 S12       30.21R WCI  29
CHOTEAU          N/A     45  10  24 W16       30.21R
CONRAD           N/A     39  15  38 W12       30.19  WCI  32
FAIRFIELD      FAIR      38  10  31 W5        30.20R
POWER          FAIR      34   8  34 W7        30.19R WCI  28
RAYNESFORD     FAIR      48   5  17 W29G38    30.18R
ULM            FAIR      44   7  22 W14       30.21R
$$

MTZ011-013-016-021-045-047-050-051-130500-
NORTH CENTRAL MONTANA

CITY           SKY/WX    TMP DP  RH WIND       PRES   REMARKS
HAVRE          FAIR      36  14  40 W10       30.15R WCI  28
LEWISTOWN      FAIR      40  11  30 NW9       30.14R
N BAR RANCH    FAIR      43   5  21 W7        30.13F
CHINOOK          N/A     45  16  31 W18G26    30.11R
DENTON         FAIR      43   7  22 NW18      30.11R
GEYSER         FAIR      44   6  20 NW25G33   30.16R
GRASS RANGE    FAIR      48   7  19 NW18G32   30.09R
STANFORD       FAIR      43   8  23 NW15      30.15R
WINIFRED       FAIR      44   6  21 NW16      30.13R
$$

MTZ017>020-022>027-061-062-130500-
NORTHEAST MONTANA

CITY           SKY/WX    TMP DP  RH WIND       PRES   REMARKS
GLASGOW        FAIR      46  23  40 NW23G32   29.95R
GLENDIVE       CLOUDY    49  24  37 W28G37    29.87R
JORDAN           N/A     49  20  31 NW25G33   30.01S
SIDNEY         CLOUDY    49  27  42 NW33G43   29.80R
WOLF POINT     FAIR      49  26  41 NW28G37   29.90R
MALTA          CLEAR     43  18  36 W15G21    30.04R
PLENTYWOOD       N/A     43  28  56 NW30G39   29.75R
$$

MTZ028>42-056>058-130500-
SOUTHCENTRAL AND SOUTHEAST MONTANA

CITY           SKY/WX    TMP DP  RH WIND       PRES   REMARKS
BAKER          CLOUDY    48  24  39 NW30G38   29.86S
BILLINGS       MOCLDY    50   7  17 NW14      30.11R
LIVINGSTON     FAIR      46  10  23 W24       30.18F
MILES CITY     CLOUDY    51  20  29 NW18G28   29.99S
BIG TIMBER     CLOUDY    48   3  15 W26G32    30.19S
EKALAKA          N/A     48  15  27 W23       29.90
FORSYTH          N/A     52   9  17 W18G30    30.03R
LAUREL           N/A     48   7  18 W9        30.13R
$$

REGIONAL REPORTS...DAKOTAS

CITY           SKY/WX    TMP DP  RH WIND       PRES   REMARKS
WILLISTON      MOCLDY    47  28  47 NW36G45   29.74R
MINOT          CLOUDY    43  29  57 NW30G40   29.56R
DICKINSON      FAIR      47  24  40 NW28G38   29.69R
BEACH          CLOUDY    48  21  34 NW30G40   29.84S
CROSBY         FAIR      41  30  65 NW26G39   29.70R
TIOGA          MIX PCPN  41  28  60 NW32G41   29.68R
WATFORD CITY   FAIR      46  27  46 NW22G36   29.74R
BISMARCK       FAIR      48  19  31 W20G26    29.57F
GRAND FORKS    CLOUDY    30  28  92 S7        29.41F WCI  23
FARGO          FAIR      33  28  81 SE8       29.47F WCI  26
BUFFALO SD       N/A     51  16  24 NW33G45   29.79R
RAPID CITY     FAIR      57  12  17 NW25G39   29.86F
$$

REGIONAL REPORTS...WYOMING/IDAHO/WASHINGTON

CITY           SKY/WX    TMP DP  RH WIND       PRES   REMARKS
GILLETTE       FAIR      47   7  19 NW21      30.02F
SHERIDAN       FAIR      46  10  23 N10       30.07F
BUFFALO WY     FAIR      49   1  14 N17G25    30.08R
CODY           FAIR      52   0  12 W10       30.14F
YELLOWSTONE LA   N/A     18  15  88 CALM      30.34F
IDAHO FALLS    FAIR      18  14  84 CALM      30.40F
SALMON         FAIR      16  13  88 CALM      30.51S
BOISE          LGT SNOW  23  21  92 CALM      30.53S FOG
SPOKANE        CLOUDY    25  24  96 N6        30.47F FOG     WCI  18
$$

REGIONAL REPORTS...ALBERTA

CITY           SKY/WX    TMP DP  RH WIND       PRES   REMARKS
EDMONTON       PTCLDY    39  27  60 W8        30.11R
CALGARY        CLEAR     32  16  51 N3        30.17R
LETHBRIDGE     CLEAR     30  14  51 SW12      30.20R WCI  21
MEDICINE HAT   CLEAR     43  25  49 NW14G20   30.13R
$$

REGIONAL REPORTS...SASKATCHEWAN

CITY           SKY/WX    TMP DP  RH WIND       PRES   REMARKS
SWIFT CURRENT  CLEAR     36  27  69 NW22G29   29.94R WCI  24
REGINA         MOCLDY    36  30  80 NW16G23   29.74S WCI  26
SASKATOON      PTCLDY    36  30  80 NW18G28   29.84R WCI  25
$$




USA.gov is the U.S. government's official web portal to all federal, state and local government web resources and services.